PHENX84 YMEN-YMMB

Flight info

Callsign PHENX84
Flight time N/A
Altitude 1500
Route DCT
Aircraft EC45/L-SDFGRY/C

Departure

Time N/A
Airport Melbourne Essendon Airport (YMEN)

Arrival

Time 2026-05-04 10:51
Airport Melbourne Moorabbin Airport (YMMB)
Time Latitude Longitude Altitude Speed Heading
2026-05-04 10:26 -37.71969 144.89874 283 ft 0 kts 269°
2026-05-04 10:29 -37.71968 144.89872 283 ft 1 kts 224°
2026-05-04 10:29 -37.71969 144.89868 283 ft 0 kts 143°
2026-05-04 10:36 -37.71970 144.89870 283 ft 0 kts 145°
2026-05-04 10:39 -37.71991 144.89887 288 ft 2 kts 145°
2026-05-04 10:39 -37.72007 144.89877 292 ft 4 kts 145°
2026-05-04 10:39 -37.72029 144.89858 297 ft 2 kts 144°
2026-05-04 10:40 -37.72040 144.89849 286 ft 0 kts 144°
2026-05-04 10:41 -37.72047 144.89861 292 ft 3 kts 145°
2026-05-04 10:41 -37.72061 144.89865 288 ft 3 kts 145°
2026-05-04 10:42 -37.72082 144.89872 284 ft 3 kts 146°
2026-05-04 10:42 -37.72096 144.89871 284 ft 2 kts 145°
2026-05-04 10:42 -37.72112 144.89880 285 ft 2 kts 144°
2026-05-04 10:42 -37.72120 144.89885 287 ft 2 kts 145°
2026-05-04 10:43 -37.72136 144.89893 287 ft 3 kts 144°
2026-05-04 10:44 -37.75538 144.92471 494 ft 128 kts 136°
2026-05-04 10:45 -37.76268 144.93203 493 ft 135 kts 136°
2026-05-04 10:45 -37.76924 144.93922 606 ft 113 kts 133°
2026-05-04 10:45 -37.77535 144.94575 636 ft 125 kts 137°
2026-05-04 10:45 -37.78219 144.95286 673 ft 128 kts 137°
2026-05-04 10:46 -37.78904 144.96028 682 ft 131 kts 137°
2026-05-04 10:46 -37.79579 144.96727 695 ft 120 kts 140°
2026-05-04 10:46 -37.80259 144.97388 682 ft 129 kts 142°
2026-05-04 10:46 -37.80987 144.98054 692 ft 132 kts 148°
2026-05-04 10:47 -37.81792 144.98602 689 ft 133 kts 155°
2026-05-04 10:47 -37.82617 144.99064 697 ft 127 kts 156°
2026-05-04 10:47 -37.83419 144.99507 689 ft 126 kts 158°
2026-05-04 10:47 -37.84228 144.99961 695 ft 125 kts 155°
2026-05-04 10:49 -37.87767 145.05992 678 ft 120 kts 118°
2026-05-04 10:49 -37.88208 145.06929 681 ft 126 kts 116°
2026-05-04 10:50 -37.88690 145.07862 684 ft 126 kts 119°
2026-05-04 10:51 -37.92214 145.12566 609 ft 18 kts 296°
2026-05-04 10:52 -37.92088 145.12522 486 ft 48 kts 332°
2026-05-04 10:52 -37.91888 145.12414 487 ft 8 kts 352°
2026-05-04 10:52 -37.91832 145.12527 381 ft 17 kts 53°
2026-05-04 10:54 -37.91764 145.12679 256 ft 0 kts 47°